GW3202 Weather Reports


Display with metric or nautical units.
time (UTC)temp
F
wind
direction
speed
MPH
gust
MPH
rain 1hr
in
rain 24hr
in
rain mn
in
humidity
%
barometer
mb
20260502224004 82 145 12.0 24.0 0.00 0.00 0.00 56 1016.1
20260502223004 83 138 13.0 23.0 0.00 0.00 0.00 58 1015.8
20260502221011 83 146 15.0 24.0 0.00 0.00 0.00 57 1016.0
20260502220009 83 174 16.0 24.0 0.00 0.00 0.00 56 1015.9
20260502215004 85 180 5.0 20.0 0.00 0.00 0.00 55 1015.9
20260502213005 85 206 3.0 22.0 0.00 0.00 0.00 50 1015.9
20260502212005 85 169 6.0 17.0 0.00 0.00 0.00 50 1016.2
20260502211006 85 182 6.0 18.0 0.00 0.00 0.00 50 1016.3
20260502210010 86 179 5.0 15.0 0.00 0.00 0.00 50 1016.1
20260502060004 65 84 3.0 3.0 0.00 0.00 0.00 87 1018.1
20260502055006 65 112 1.0 5.0 0.00 0.00 0.00 88 1018.2
20260502054002 65 107 2.0 5.0 0.00 0.00 0.00 89 1018.3
20260502053001 66 0 0.0 2.0 0.00 0.00 0.00 90 1018.1
20260502052001 66 23 0.0 2.0 0.00 0.00 0.00 88 1018.0
20260502051001 67 263 1.0 3.0 0.00 0.00 0.00 87 1018.1
20260502050001 68 270 2.0 2.0 0.00 0.00 0.00 86 1018.0
20260502045003 68 33 1.0 3.0 0.00 0.00 0.00 83 1018.0
20260502043002 68 109 1.0 3.0 0.00 0.00 0.00 82 1017.8
20260502041002 69 97 2.0 5.0 0.00 0.00 0.00 83 1017.6
20260502040002 68 126 2.0 5.0 0.00 0.00 0.00 85 1017.5
20260502035002 69 138 2.0 8.0 0.00 0.00 0.00 85 1017.6
20260502034002 69 117 5.0 8.0 0.00 0.00 0.00 84 1017.5
20260502031002 69 110 3.0 7.0 0.00 0.00 0.00 84 1017.1
20260502025003 69 251 3.0 8.0 0.00 0.00 0.00 84 1017.0
20260502024011 70 173 2.0 6.0 0.00 0.00 0.00 83 1016.9
20260502023006 69 0 2.0 5.0 0.00 0.00 0.00 83 1016.8
20260502022006 69 307 2.0 9.0 0.00 0.00 0.00 82 1016.5
20260502021003 70 131 2.0 15.0 0.00 0.00 0.00 80 1016.4
20260502020003 69 163 5.0 18.0 0.00 0.00 0.00 79 1016.0
20260502015006 70 131 8.0 20.0 0.00 0.00 0.00 80 1015.9
20260502014004 70 142 8.0 21.0 0.00 0.00 0.00 79 1015.9
20260502012030 71 130 15.0 26.0 0.00 0.00 0.00 77 1015.5
20260502011004 72 157 13.0 26.0 0.00 0.00 0.00 75 1015.5
20260502010002 73 164 9.0 23.0 0.00 0.00 0.00 73 1015.3
20260502005006 73 166 10.0 23.0 0.00 0.00 0.00 74 1015.2
20260502004006 73 151 12.0 24.0 0.00 0.00 0.00 74 1015.1
20260502003005 74 148 13.0 24.0 0.00 0.00 0.00 72 1015.0
20260502002006 75 130 10.0 31.0 0.00 0.00 0.00 72 1014.9
20260502001009 76 169 11.0 26.0 0.00 0.00 0.00 71 1014.6
20260502000004 76 146 15.0 26.0 0.00 0.00 0.00 70 1014.7
20260501235004 77 140 10.0 24.0 0.00 0.00 0.00 69 1014.5
20260501234005 77 143 12.0 24.0 0.00 0.00 0.00 68 1014.5
20260501233011 78 176 7.0 25.0 0.00 0.00 0.00 67 1014.3
20260501231004 79 162 12.0 26.0 0.00 0.00 0.00 65 1014.2
20260501230005 80 148 11.0 25.0 0.00 0.00 0.00 63 1014.3
20260501225003 80 160 11.0 23.0 0.00 0.00 0.00 64 1014.1